Regional Weather Roundup
Issued by NWS Charleston, WV

Home | Current Version | Previous Version | Graphics & Text | Print | Product List | Glossary On
Versions: 1 2 3 4 5 6 7 8 9 10 11 12 13 14 15 16 17 18 19 20 21 22 23 24 25 26 27 28 29 30 31 32 33 34 35 36 37 38 39 40 41 42 43 44 45 46 47 48 49 50
000
ASUS41 KRLX 311210
RWRRLX
West Virginia Regional Weather Roundup
National Weather Service Charleston WV
800 AM EDT MON AUG 31 2015

Note: "fair" indicates few or no clouds below 12,000 feet with no
significant weather and/or obstructions to visibility.

WVZ003-311300-
Northern Panhandle of West Virginia

CITY           SKY/WX    TMP DP  RH WIND       PRES   REMARKS
WHEELING       PTSUNNY   68  65  90 SW3       30.12R FOG
$$

WVZ009-311300-
Northwest West Virginia

CITY           SKY/WX    TMP DP  RH WIND       PRES   REMARKS
PARKERSBURG    MOSUNNY   66  65  96 CALM      30.15R
$$

WVZ006-311300-
Western West Virginia

CITY           SKY/WX    TMP DP  RH WIND       PRES   REMARKS
HUNTINGTON     SUNNY     66  66 100 CALM      30.13R FOG
$$

WVZ015-311300-
West Central West Virginia

CITY           SKY/WX    TMP DP  RH WIND       PRES   REMARKS
CHARLESTON     FOG       66  65  96 CALM      30.13R VSB 1
$$

WVZ022-031-311300-
North Central West Virginia

CITY           SKY/WX    TMP DP  RH WIND       PRES   REMARKS
CLARKSBURG     CLOUDY    68  66  93 CALM      30.14R
MORGANTOWN     CLOUDY    71  66  84 CALM      30.15R
$$

WVZ025-035-042-045-311300-
Southern West Virginia

CITY           SKY/WX    TMP DP  RH WIND       PRES   REMARKS
BECKLEY        CLOUDY    65  61  87 CALM      30.20R
LOGAN          FOG       66  66 100 CALM      30.16R VSB<1/4
BLUEFIELD      LGT RAIN  66  59  78 SE3       30.23R
LEWISBURG      CLOUDY    65  64  94 CALM      30.19S FOG
$$

WVZ047-311300-
Northern Mountains of West Virginia

CITY           SKY/WX    TMP DP  RH WIND       PRES   REMARKS
ELKINS         PTSUNNY   65  61  87 CALM      30.19R
$$

WVZ052-311300-
Eastern Panhandle of West Virginia

CITY           SKY/WX    TMP DP  RH WIND       PRES   REMARKS
MARTINSBURG    CLOUDY    71  65  81 CALM      30.10R
PETERSBURG     FOG       67  67 100 CALM      30.14R VSB 1/4
$$


USA.gov is the U.S. government's official web portal to all federal, state and local government web resources and services.